This is the latest recevied weather packets stored in our database for station/object KA3RQR. If no packets are shown the sender has not sent any weather packets the latest 10 day(s).
| Time | Temp. | Humidity | Pressure | Rain* | Wind** | Luminosity | Snow |
|---|---|---|---|---|---|---|---|
| 1778027740 | 24.44° C | 37% | 1010 hPa | 0 mm | - | 0 W/m² | - |
| 1778027437 | 24.44° C | 37% | 1010.1 hPa | 0 mm | - | 0 W/m² | - |
| 1778027132 | 24.44° C | 37% | 1010.1 hPa | 0 mm | - | 0 W/m² | - |
| 1778026828 | 24.44° C | 36% | 1009.8 hPa | 0 mm | - | 0 W/m² | - |
| 1778026525 | 25° C | 35% | 1009.9 hPa | 0 mm | - | 0 W/m² | - |
| 1778026222 | 25° C | 35% | 1009.7 hPa | 0 mm | - | 0 W/m² | - |
| 1778025920 | 25° C | 34% | 1009.7 hPa | 0 mm | - | 0 W/m² | - |
| 1778025617 | 25° C | 34% | 1009.9 hPa | 0 mm | - | 1 W/m² | - |
| 1778025315 | 25° C | 33% | 1009.6 hPa | 0 mm | - | 2 W/m² | - |
| 1778025011 | 25° C | 35% | 1009.7 hPa | 0 mm | - | 3 W/m² | - |
| 1778024708 | 25.56° C | 33% | 1009.6 hPa | 0 mm | - | 5 W/m² | - |
| 1778024405 | 25.56° C | 33% | 1009.7 hPa | 0 mm | - | 6 W/m² | - |
| 1778024103 | 25.56° C | 32% | 1009.7 hPa | 0 mm | - | 9 W/m² | - |
| 1778023800 | 25.56° C | 35% | 1009.6 hPa | 0 mm | - | 16 W/m² | - |
| 1778023498 | 25.56° C | 33% | 1009.4 hPa | 0 mm | - | 26 W/m² | - |
| 1778023195 | 26.11° C | 34% | 1009.6 hPa | 0 mm | - | 36 W/m² | - |
| 1778022892 | 26.11° C | 34% | 1009.6 hPa | 0 mm | - | 35 W/m² | - |
| 1778022590 | 26.11° C | 33% | 1009.6 hPa | 0 mm | - | 31 W/m² | - |
| 1778022288 | 25.56° C | 35% | 1009.5 hPa | 0 mm | - | 31 W/m² | - |
| 1778021984 | 26.11° C | 33% | 1009.7 hPa | 0 mm | - | 32 W/m² | - |
| 1778021681 | 26.11° C | 33% | 1009.9 hPa | 0 mm | - | 45 W/m² | - |
| 1778021377 | 26.67° C | 32% | 1009.6 hPa | 0 mm | - | 57 W/m² | - |
| 1778021074 | 26.67° C | 32% | 1009.6 hPa | 0 mm | - | 109 W/m² | - |
| 1778020771 | 26.67° C | 31% | 1009.6 hPa | 0 mm | - | 142 W/m² | - |
| 1778020468 | 26.67° C | 31% | 1009.5 hPa | 0 mm | - | 83 W/m² | - |
* Rain latest hour (hover to see other rain measurements)
** Current wind speed in m/s (hover to see current wind gust speed)